TimeEST,TemperatureF,Dew PointF,Humidity,Sea Level PressureIn,VisibilityMPH,Wind Direction,Wind SpeedMPH,Gust SpeedMPH,PrecipitationIn,Events,Conditions,WindDirDegrees,DateUTC
12:00 AM,32.0,21.2,64,30.53,15.0,NNW,2.3,-,N/A,,Clear,340,2012-11-14 05:00:00
1:00 AM,31,22,58,30.53,15,NNE,3.5,,,,,30,2012-11-14 06:00:00
1:00 AM,30.2,21.2,69,30.53,15.0,NNE,3.5,-,N/A,,Clear,20,2012-11-14 06:00:00
2:00 AM,28.4,21.2,74,30.55,15.0,North,3.5,-,N/A,,Clear,350,2012-11-14 07:00:00
3:00 AM,28.4,19.4,69,30.55,15.0,North,3.5,-,N/A,,Clear,350,2012-11-14 08:00:00
4:00 AM,24.8,19.4,80,30.56,15.0,North,2.3,-,N/A,,Clear,360,2012-11-14 09:00:00
5:00 AM,23.0,19.4,86,30.58,15.0,NW,2.3,-,N/A,,Clear,310,2012-11-14 10:00:00
6:00 AM,24.8,21.2,86,30.60,15.0,NNW,2.3,-,N/A,,Clear,330,2012-11-14 11:00:00
7:00 AM,23,19,80,30.63,28,NNW,1.2,,,,,340,2012-11-14 12:00:00
7:00 AM,23.0,19.4,86,30.63,30.0,NNW,2.3,-,N/A,,Clear,340,2012-11-14 12:00:00
8:00 AM,26.6,23.0,86,30.64,30.0,NW,2.3,-,N/A,,Clear,310,2012-11-14 13:00:00
9:00 AM,33.8,26.6,75,30.65,15.0,NNE,3.5,-,N/A,,Clear,30,2012-11-14 14:00:00
10:00 AM,35.6,24.8,65,30.66,15.0,East,1.2,-,N/A,,Partly Cloudy,80,2012-11-14 15:00:00
11:00 AM,41.0,23.0,49,30.65,15.0,SW,2.3,-,N/A,,Partly Cloudy,220,2012-11-14 16:00:00
12:00 PM,41.0,21.2,45,30.63,15.0,WNW,4.6,-,N/A,,Partly Cloudy,300,2012-11-14 17:00:00
1:00 PM,41,20,30,30.61,28,North,1.2,,,,Scattered Clouds,10,2012-11-14 18:00:00
1:00 PM,41.0,19.4,42,30.61,30.0,North,2.3,-,N/A,,Partly Cloudy,10,2012-11-14 18:00:00
2:00 PM,41.0,21.2,45,30.60,30.0,NNE,3.5,-,N/A,,Partly Cloudy,20,2012-11-14 19:00:00
3:00 PM,41.0,19.4,42,30.60,30.0,NNE,3.5,-,N/A,,Partly Cloudy,20,2012-11-14 20:00:00
4:00 PM,39.2,19.4,45,30.60,30.0,ENE,3.5,-,N/A,,Partly Cloudy,60,2012-11-14 21:00:00
5:00 PM,39.2,19.4,45,30.60,15.0,NE,4.6,-,N/A,,Partly Cloudy,40,2012-11-14 22:00:00
6:00 PM,37.4,21.2,52,30.60,15.0,ENE,4.6,-,N/A,,Clear,70,2012-11-14 23:00:00
7:00 PM,36,21,42,30.61,15,East,5.8,,,,,90,2012-11-15 00:00:00
7:00 PM,37.4,21.2,52,30.61,15.0,East,5.8,-,N/A,,Clear,90,2012-11-15 00:00:00
8:00 PM,35.6,21.2,56,30.61,15.0,ENE,6.9,-,N/A,,Clear,70,2012-11-15 01:00:00
9:00 PM,35.6,21.2,56,30.60,15.0,ENE,4.6,-,N/A,,Clear,60,2012-11-15 02:00:00
10:00 PM,33.8,21.2,60,30.60,15.0,NE,8.1,-,N/A,,Clear,40,2012-11-15 03:00:00
11:00 PM,32.0,21.2,64,30.59,15.0,NE,6.9,-,N/A,,Clear,40,2012-11-15 04:00:00